DLH648 EDDF-UAAA

Flight info

Callsign DLH648
Flight time N/A
Altitude 31000
Route CINDY8S/18 CINDY Z74 HAREM DCT ASLEP DCT TAKUT L603 BESNI/N0480F350 L605 MIQ/N0475F370 DCT ALUTU DCT BIBAG Q104 AKIMA DCT ARSIN DCT GAZDA DCT TEGRI DCT DINRO N743 UDROS DCT CRM/N0476F390 DCT ROLIN DCT TAGAR DCT BT DCT BARAD M747 LUSAL N199 RASAM L88 METKA B476 TIMGA A480 OTBOR/K0872F390 N147 ELAHA Z621 ARBOL M610 TIPSA
Aircraft A343/H-SDE2E3FGHIJ4J5M1RWXY/LB1D1

Departure

Time 2026-05-07 09:34
Airport Frankfurt Main Airport (EDDF)

Arrival

Time N/A
Airport Almaty International Airport (UAAA)
Time Latitude Longitude Altitude Speed Heading
2026-05-07 09:14 50.04685 8.56038 362 ft 0 kts 340°
2026-05-07 09:25 50.04678 8.56042 360 ft 4 kts 340°
2026-05-07 09:25 50.04653 8.56057 364 ft 4 kts 340°
2026-05-07 09:25 50.04628 8.56071 367 ft 4 kts 333°
2026-05-07 09:25 50.04606 8.56095 367 ft 4 kts 307°
2026-05-07 09:26 50.04596 8.56130 362 ft 4 kts 265°
2026-05-07 09:26 50.04598 8.56148 366 ft 0 kts 249°
2026-05-07 09:28 50.04593 8.56125 362 ft 7 kts 249°
2026-05-07 09:28 50.04574 8.56050 365 ft 8 kts 249°
2026-05-07 09:28 50.04550 8.55977 368 ft 7 kts 229°
2026-05-07 09:29 50.04520 8.55953 367 ft 2 kts 199°
2026-05-07 09:29 50.04513 8.55949 368 ft 0 kts 199°
2026-05-07 09:29 50.04457 8.55923 365 ft 14 kts 196°
2026-05-07 09:29 50.04365 8.55919 364 ft 13 kts 166°
2026-05-07 09:30 50.04277 8.55962 361 ft 13 kts 173°
2026-05-07 09:30 50.04214 8.55836 361 ft 23 kts 250°
2026-05-07 09:30 50.04158 8.55600 362 ft 26 kts 250°
2026-05-07 09:30 50.04080 8.55273 364 ft 33 kts 250°
2026-05-07 09:31 50.04005 8.54954 364 ft 31 kts 250°
2026-05-07 09:31 50.03942 8.54695 358 ft 25 kts 249°
2026-05-07 09:31 50.03881 8.54443 355 ft 25 kts 249°
2026-05-07 09:31 50.03797 8.54215 359 ft 24 kts 247°
2026-05-07 09:32 50.03741 8.53978 354 ft 23 kts 249°
2026-05-07 09:32 50.03673 8.53692 356 ft 30 kts 250°
2026-05-07 09:32 50.03598 8.53394 355 ft 29 kts 250°
2026-05-07 09:32 50.03529 8.53103 351 ft 28 kts 250°
2026-05-07 09:33 50.03457 8.52822 336 ft 28 kts 246°
2026-05-07 09:33 50.03387 8.52589 334 ft 3 kts 215°
2026-05-07 09:33 50.03361 8.52591 334 ft 16 kts 178°
2026-05-07 09:33 50.03061 8.52597 339 ft 70 kts 180°
2026-05-07 09:34 50.02404 8.52604 338 ft 117 kts 179°
2026-05-07 09:34 50.01453 8.52611 333 ft 155 kts 179°
2026-05-07 09:34 50.00300 8.52631 603 ft 166 kts 182°
2026-05-07 09:34 49.99161 8.52632 1094 ft 169 kts 181°
2026-05-07 09:35 49.97942 8.52648 1454 ft 181 kts 179°
2026-05-07 09:35 49.96673 8.53215 1656 ft 204 kts 147°
2026-05-07 09:35 49.95713 8.54956 1845 ft 226 kts 120°
2026-05-07 09:35 49.94916 8.57199 2292 ft 244 kts 116°
2026-05-07 09:36 49.94207 8.59600 3078 ft 246 kts 104°
2026-05-07 09:36 49.93937 8.62258 3732 ft 255 kts 92°
2026-05-07 09:36 49.93843 8.65039 4485 ft 260 kts 91°
2026-05-07 09:36 49.93656 8.67862 5263 ft 267 kts 102°
2026-05-07 09:37 49.92800 8.70436 6010 ft 275 kts 132°
2026-05-07 09:37 49.91323 8.72355 6741 ft 280 kts 144°
2026-05-07 09:37 49.89761 8.74197 7465 ft 285 kts 136°
2026-05-07 09:37 49.88499 8.76566 8210 ft 287 kts 124°
2026-05-07 09:38 49.87431 8.79205 8966 ft 291 kts 119°
2026-05-07 09:38 49.86463 8.81984 9677 ft 295 kts 116°
2026-05-07 09:38 49.85540 8.84849 10283 ft 302 kts 116°
2026-05-07 09:38 49.84596 8.87862 10561 ft 320 kts 116°
2026-05-07 09:39 49.83593 8.91047 10827 ft 337 kts 116°
2026-05-07 09:39 49.82527 8.94384 11089 ft 354 kts 117°
2026-05-07 09:39 49.81399 8.97864 11336 ft 369 kts 117°
2026-05-07 09:39 49.80219 9.01466 11688 ft 381 kts 117°
2026-05-07 09:40 49.79006 9.05146 12219 ft 386 kts 117°
2026-05-07 09:40 49.77778 9.08859 12865 ft 390 kts 117°